STARLINK-33732

Satellite information

Favourite Embed

Satellite Type and Status

PAYLOADIN ORBIT

Key statistics

Satellite STARLINK-33732 at a glance.

Uptime

243

Days in orbit

Revolutions

≈ 15.3

Per day

Orbit

LEO

Low Earth Orbit

Inclination

43.0

Latest

Satellite identification and parameters

Extended collection of information and parameters for STARLINK-33732.

Object identification

Identified? True

Debris? False

Object name: STARLINK-33732

International designator: 2025-076G

Object number (NORAD): 63575

Object ID (CCSDS): 63575

Country: UNITED STATES OF AMERICA (US)

Current information (Y/N): Y

RCS size: LARGE

Orbital parameters

Period: 94.264 minutes

Inclination: 43.005 deg

SMA: 6861.077 km

Apoapsis: 484.795 km

Periapsis: 481.089 km

RAAN: 98.6952 deg

Eccentricy: 0.00027007

Argument of periapsis: 251.8667 deg

Mean anomaly: 108.1891 deg

Mean motion: 15.27616578 rev/day

Mean motion (dot): 0.00035756 rev/day2

B* drag term: 0.0013010606 1/REarth

Two-line elements (TLE)

Creation date: Dec. 12, 2025, 3:16 a.m.

Reference frame: TEME

Reference center: EARTH

Epoch: Dec. 11, 2025, 5:05 p.m. UTC

TLE line 0: 0 STARLINK-33732

TLE line 1: 1 63575U 25076G 25345.71194841 .00035756 00000-0 13011-2 0 9994

TLE line 2: 2 63575 43.0050 98.6952 0002701 251.8667 108.1891 15.27616578 38371

Live tracking on map

Real-time ground track for satellite STARLINK-33732.

In-orbit conjunctions

There are no conjunctions computed for STARLINK-33732, at the moment. Check back to stay up to date, as we update our databases every day.

Go to all conjunctions

Associated space launch

A batch of 27 satellites for the Starlink mega-constellation - SpaceX's project for space-based Internet communication system.

STARLINK-33732 was lifted into orbit during the mission ‘Falcon 9 Block 5 | Starlink Group 6-73’, on board a Falcon 9 space rocket.

The launch took place on April 14, 2025, 4 a.m. from Space Launch Complex 40.

For more information about the launch, click the button.

Launch to space Falcon 9 Block 5 | Starlink Group 6-73
Falcon 9 Block 5 | Starlink Group 6-73

Agency: SpaceX

Status: Launch Successful

Launch date: April 14, 2025, 4 a.m. UTC

Rocket: Falcon 9

Launch pad: Space Launch Complex 40

Location: Cape Canaveral SFS, FL, USA

...

Latest news about this satellite

News about space launch
Live coverage: SpaceX to launch 27 Starlink satellites on Falcon 9 rocket from Cape Canaveral

The Starlink 6-73 mission features a Falcon booster, tail number 1067, which will launch for a record-setting 27th time. Liftoff from pad 40 at Cape Canaveral Space Force Station is targeting 10:34 p.m. EDT (0234 UTC).


Newsletter sign-up

Weekly statistics, charts and insights to help you stay on top of the space industry.